Weather History for KOKK - November, 2013

Change the Weather History Date:

Monday, November 25, 2013

  Actual Average (KGUS) Record (KGUS)
Temperature  
Mean Temperature 26 °F -  
Max Temperature 33 °F 44 °F 60 °F (2006)
Min Temperature 19 °F 31 °F 15 °F (2005)
Degree Days  
Heating Degree Days 39    
Moisture  
Dew Point 16 °F    
Average Humidity 60    
Maximum Humidity 86    
Minimum Humidity 44    
Precipitation  
Precipitation 0.00 in - - ()
Sea Level Pressure  
Sea Level Pressure 30.24 in    
Wind  
Wind Speed 11 mph (SW)    
Max Wind Speed 18 mph    
Max Gust Speed 24 mph    
Visibility 10 miles    
Events      
Averages and records for this station are not official NWS values.
T = Trace of Precipitation, MM = Missing Value Source: NWS Daily Summary

Daily Weather History Graph

Daily Weather History Graph

Search for Another Location

Airport or City:

Trip Planner

Search our weather history database for the weather conditions in past years. The results will help you decide how hot, cold, wet, or windy it might be!

Date:

Astronomy

Nov. 25, 2013 Rise Set
Actual Time 6:42 AM CST 4:20 PM CST
Civil Twilight 6:12 AM CST 4:50 PM CST
Nautical Twilight 5:38 AM CST 5:23 PM CST
Astronomical Twilight 5:06 AM CST 5:56 PM CST
Moon 11:44 PM CST (11/25) 11:58 AM CST (11/25)
Length of Visible Light 10h 37m
Length of Day
9h 37m
Waning Gibbous, 51% of the Moon is Illuminated
Nov 25
Waning Gibbous
Nov 25
Last Quarter
Dec 2
New
Dec 9
First Quarter
Dec 17
Full

Hourly Weather History & Observations

Time (CST) Temp. Windchill Dew Point Humidity Pressure Visibility Wind Dir Wind Speed Gust Speed Precip Events Conditions
12:15 AM 19.4 °F 9.5 °F 10.4 °F 68% 30.43 in 10.0 mi SSW 8.1 mph - N/A   Clear
12:35 AM 19.4 °F 9.5 °F 10.4 °F 68% 30.42 in 10.0 mi SSW 8.1 mph - N/A   Clear
12:55 AM 21.2 °F 10.1 °F 12.2 °F 68% 30.41 in 10.0 mi SSW 10.4 mph - N/A   Clear
1:15 AM 21.2 °F 10.1 °F 12.2 °F 68% 30.40 in 10.0 mi SSW 10.4 mph - N/A   Clear
1:35 AM 21.2 °F 9.5 °F 10.4 °F 63% 30.40 in 10.0 mi SSW 11.5 mph - N/A   Clear
1:55 AM 21.2 °F 10.1 °F 14.0 °F 74% 30.40 in 10.0 mi SSW 10.4 mph - N/A   Clear
2:15 AM 21.2 °F 10.9 °F 12.2 °F 68% 30.39 in 10.0 mi SSW 9.2 mph - N/A   Clear
2:35 AM 21.2 °F 10.9 °F 12.2 °F 68% 30.38 in 10.0 mi SSW 9.2 mph - N/A   Clear
2:55 AM 21.2 °F 10.1 °F 14.0 °F 74% 30.37 in 10.0 mi SSW 10.4 mph - N/A   Clear
3:15 AM 23.0 °F 12.4 °F 12.2 °F 63% 30.37 in 10.0 mi SSW 10.4 mph - N/A   Clear
3:35 AM 23.0 °F 11.7 °F 12.2 °F 63% 30.37 in 10.0 mi SSW 11.5 mph - N/A   Clear
3:55 AM 23.0 °F 11.7 °F 14.0 °F 68% 30.35 in 10.0 mi SSW 11.5 mph - N/A   Clear
4:15 AM 23.0 °F 13.1 °F 15.8 °F 74% 30.34 in 10.0 mi SSW 9.2 mph - N/A   Clear
4:35 AM 23.0 °F 12.4 °F 15.8 °F 74% 30.34 in 10.0 mi South 10.4 mph - N/A   Clear
4:55 AM 24.8 °F 15.3 °F 15.8 °F 69% 30.34 in 10.0 mi SSW 9.2 mph - N/A   Scattered Clouds
5:15 AM 24.8 °F 16.1 °F 15.8 °F 69% 30.34 in 10.0 mi SSW 8.1 mph - N/A   Mostly Cloudy
5:35 AM 24.8 °F 14.6 °F 14.0 °F 64% 30.33 in 10.0 mi SSW 10.4 mph - N/A   Scattered Clouds
5:55 AM 24.8 °F 14.0 °F 14.0 °F 64% 30.31 in 10.0 mi SSW 11.5 mph - N/A   Scattered Clouds
6:15 AM 24.8 °F 14.0 °F 14.0 °F 64% 30.30 in 10.0 mi South 11.5 mph - N/A   Mostly Cloudy
6:35 AM 24.8 °F 14.0 °F 15.8 °F 69% 30.30 in 10.0 mi SSW 11.5 mph - N/A   Partly Cloudy
6:55 AM 24.8 °F 14.6 °F 14.0 °F 64% 30.30 in 10.0 mi SSW 10.4 mph - N/A   Partly Cloudy
7:15 AM 24.8 °F 14.6 °F 14.0 °F 64% 30.30 in 10.0 mi SW 10.4 mph - N/A   Clear
7:35 AM 24.8 °F 13.4 °F 15.8 °F 69% 30.30 in 10.0 mi SW 12.7 mph 16.1 mph N/A   Clear
7:55 AM 24.8 °F 14.0 °F 12.2 °F 59% 30.31 in 10.0 mi SW 11.5 mph - N/A   Clear
8:15 AM 26.6 °F 15.2 °F 15.8 °F 64% 30.30 in 10.0 mi SSW 13.8 mph 20.7 mph N/A   Clear
8:35 AM 26.6 °F 14.3 °F 15.8 °F 64% 30.29 in 10.0 mi SSW 16.1 mph - N/A   Clear
8:55 AM 26.6 °F 15.2 °F 15.8 °F 64% 30.28 in 10.0 mi SSW 13.8 mph 18.4 mph N/A   Mostly Cloudy
9:15 AM 28.4 °F 16.6 °F 14.0 °F 55% 30.28 in 10.0 mi SW 16.1 mph 23.0 mph N/A   Overcast
9:35 AM 28.4 °F 16.2 °F 14.0 °F 55% 30.28 in 10.0 mi SW 17.3 mph 20.7 mph N/A   Overcast
9:55 AM 28.4 °F 17.5 °F 14.0 °F 55% 30.26 in 10.0 mi SSW 13.8 mph 19.6 mph N/A   Overcast
10:15 AM 28.4 °F 16.2 °F 14.0 °F 55% 30.25 in 10.0 mi SW 17.3 mph - N/A   Overcast
10:35 AM 28.4 °F 17.5 °F 12.2 °F 51% 30.25 in 10.0 mi SW 13.8 mph - N/A   Mostly Cloudy
10:55 AM 30.2 °F 19.8 °F 15.8 °F 55% 30.24 in 10.0 mi SW 13.8 mph 21.9 mph N/A   Mostly Cloudy
11:15 AM 30.2 °F 19.8 °F 14.0 °F 51% 30.23 in 10.0 mi SW 13.8 mph 19.6 mph N/A   Overcast
11:35 AM 30.2 °F 19.8 °F 12.2 °F 47% 30.21 in 10.0 mi SW 13.8 mph 21.9 mph N/A   Overcast
11:55 AM 30.2 °F 20.2 °F 15.8 °F 55% 30.20 in 10.0 mi SW 12.7 mph - N/A   Overcast
12:15 PM 30.2 °F 19.8 °F 15.8 °F 55% 30.20 in 10.0 mi SW 13.8 mph 21.9 mph N/A   Overcast
12:35 PM 32.0 °F 21.2 °F 14.0 °F 48% 30.20 in 10.0 mi SW 16.1 mph 21.9 mph N/A   Overcast
12:55 PM 32.0 °F 21.2 °F 14.0 °F 48% 30.19 in 10.0 mi SW 16.1 mph - N/A   Mostly Cloudy
1:15 PM 33.8 °F 22.8 °F 15.8 °F 48% 30.18 in 10.0 mi WSW 18.4 mph 23.0 mph N/A   Overcast
1:35 PM 32.0 °F 20.5 °F 14.0 °F 48% 30.19 in 10.0 mi WSW 18.4 mph 24.2 mph N/A   Overcast
1:55 PM 32.0 °F 22.1 °F 15.8 °F 51% 30.18 in 10.0 mi WSW 13.8 mph 17.3 mph N/A   Overcast
2:15 PM 33.8 °F 24.8 °F 15.8 °F 48% 30.17 in 10.0 mi SW 12.7 mph - N/A   Overcast
2:35 PM 33.8 °F 24.8 °F 15.8 °F 48% 30.17 in 10.0 mi SW 12.7 mph - N/A   Overcast
2:55 PM 33.8 °F 25.3 °F 14.0 °F 44% 30.17 in 10.0 mi SW 11.5 mph 19.6 mph N/A   Mostly Cloudy
3:15 PM 33.8 °F 25.3 °F 15.8 °F 48% 30.17 in 10.0 mi SW 11.5 mph - N/A   Mostly Cloudy
3:35 PM 33.8 °F 25.8 °F 14.0 °F 44% 30.16 in 10.0 mi SW 10.4 mph - N/A   Overcast
3:55 PM 33.8 °F 24.8 °F 15.8 °F 48% 30.17 in 10.0 mi SW 12.7 mph - N/A   Overcast
4:15 PM 33.8 °F 25.8 °F 15.8 °F 48% 30.18 in 10.0 mi SW 10.4 mph - N/A   Mostly Cloudy
4:35 PM 32.0 °F 22.1 °F 17.6 °F 55% 30.17 in 10.0 mi SW 13.8 mph 18.4 mph N/A   Mostly Cloudy
4:55 PM 32.0 °F 23.0 °F 15.8 °F 51% 30.16 in 10.0 mi SW 11.5 mph 17.3 mph N/A   Overcast
5:15 PM 33.8 °F 24.3 °F 17.6 °F 52% 30.16 in 10.0 mi SW 13.8 mph - N/A   Overcast
5:35 PM 33.8 °F 24.8 °F 15.8 °F 48% 30.16 in 10.0 mi SW 12.7 mph - N/A   Overcast
5:55 PM 32.0 °F 23.0 °F 17.6 °F 55% 30.15 in 10.0 mi SW 11.5 mph - N/A   Mostly Cloudy
6:15 PM 32.0 °F 21.6 °F 17.6 °F 55% 30.15 in 10.0 mi SSW 15.0 mph 18.4 mph N/A   Mostly Cloudy
6:35 PM 32.0 °F 22.1 °F 19.4 °F 60% 30.16 in 10.0 mi SW 13.8 mph 20.7 mph N/A   Overcast
6:55 PM 33.8 °F 23.5 °F 17.6 °F 52% 30.16 in 10.0 mi SW 16.1 mph 20.7 mph N/A   Overcast
7:15 PM 32.0 °F 23.0 °F 19.4 °F 60% 30.17 in 10.0 mi SW 11.5 mph 17.3 mph N/A   Overcast
7:35 PM 32.0 °F 22.5 °F 17.6 °F 55% 30.16 in 10.0 mi SW 12.7 mph - N/A   Overcast
7:55 PM 32.0 °F 21.6 °F 19.4 °F 60% 30.17 in 10.0 mi WSW 15.0 mph - N/A   Overcast
8:15 PM 32.0 °F 21.6 °F 19.4 °F 60% 30.17 in 10.0 mi WSW 15.0 mph 19.6 mph N/A   Overcast
8:35 PM 32.0 °F 21.6 °F 17.6 °F 55% 30.16 in 10.0 mi WSW 15.0 mph - N/A   Overcast
8:55 PM 32.0 °F 22.1 °F 19.4 °F 60% 30.16 in 8.0 mi WSW 13.8 mph - N/A   Overcast
9:15 PM 30.2 °F 20.8 °F 21.2 °F 69% 30.16 in 10.0 mi West 11.5 mph 17.3 mph N/A   Overcast
9:35 PM 30.2 °F 23.4 °F 19.4 °F 64% 30.15 in 10.0 mi West 6.9 mph - N/A   Overcast
9:55 PM 30.2 °F 23.4 °F 23.0 °F 75% 30.15 in 10.0 mi West 6.9 mph - N/A   Overcast
10:15 PM 30.2 °F 21.9 °F 21.2 °F 69% 30.13 in 10.0 mi West 9.2 mph - N/A   Overcast
10:35 PM 30.2 °F 21.3 °F 19.4 °F 64% 30.14 in 10.0 mi West 10.4 mph - N/A   Overcast
10:55 PM 30.2 °F 22.6 °F 21.2 °F 69% 30.14 in 10.0 mi West 8.1 mph - N/A   Mostly Cloudy
11:15 PM 30.2 °F 21.3 °F 21.2 °F 69% 30.15 in 10.0 mi WNW 10.4 mph - N/A   Mostly Cloudy
11:35 PM 28.4 °F 21.2 °F 24.8 °F 86% 30.15 in 10.0 mi West 6.9 mph - N/A   Overcast
11:55 PM 30.2 °F 21.3 °F 23.0 °F 75% 30.15 in 10.0 mi West 10.4 mph - N/A   Overcast